Hourly Data Report for October 22, 2015

All times are specified in Local Standard Time (LST). Add 1 hour to adjust for Daylight Saving Time where and when it is observed.

IQALUIT CLIMATE
NUNAVUT

63°44'50.000" N
68°32'40.000" W
33.50 m
2402592
71321
XFB

Download Data

Hourly Data (October 2015)
Hourly Data Report for October 22, 2015
Temp Definition
°C
Dew Point Temp Definition
°C
Rel Hum Definition
%
Wind Dir Definition
10's deg

Wind Spd Definition
km/h
Visibility Definition
km
Stn Press Definition
kPa
Hmdx Definition


Wind Chill Definition


Weather Definition


TIME
00:00 -5.2 -7.9 81 32 15   101.03   -11 LegendNANA
01:00 -4.6 -8.1 77 31 22   101.05   -11 LegendNANA
02:00 -5.0 -8.1 79 31 28   101.09   -13 LegendNANA
03:00 -5.5 -8.1 82 32 16   101.12   -11 LegendNANA
04:00 -5.3 -8.0 81 32 21   101.15   -12 LegendNANA
05:00 -5.1 -7.1 86 33 22   101.18   -12 LegendNANA
06:00 -6.0 -9.0 79 33 19   101.25   -13 LegendNANA
07:00 -5.7 -7.5 87 32 19   101.29   -12 LegendNANA
08:00 -5.6 -7.5 86 32 21   101.33   -12 LegendNANA
09:00 -6.3 -9.5 78 34 25   101.39   -14 LegendNANA
10:00 -5.9 -9.9 73 33 21   101.45   -13 LegendNANA
11:00 -5.8 -8.2 83 32 20   101.46   -13 LegendNANA
12:00 -5.8 -8.5 82 33 26   101.50   -14 LegendNANA
13:00 -6.1 -9.3 78 33 24   101.55   -14 LegendNANA
14:00 -6.2 -9.2 79 33 20   101.59   -13 LegendNANA
15:00 -6.7 -10.1 77 34 23   101.61   -14 LegendNANA
16:00 -6.7 -9.7 79 32 15   101.64   -13 LegendNANA
17:00 -6.7 -9.2 82 31 11   101.65   -12 LegendNANA
18:00 -6.5 -8.7 85 32 8   101.68   -10 LegendNANA
19:00 -6.1 -8.8 82 32 14   101.71   -12 LegendNANA
20:00 -6.0 -8.3 84 31 14   101.73   -12 LegendNANA
21:00 -5.9 -8.4 83 31 17   101.74   -12 LegendNANA
22:00 -6.0 -9.1 79 30 22   101.75   -13 LegendNANA
23:00 -6.2 -9.4 78 31 21   101.78   -13 LegendNANA

Notes on Data Quality.

Legend

  • E = Estimated
  • M = Missing
  • NA = Not Available
  • ‡ = Partner data that is not subject to review by the National Climate Archives
Date modified: